Temp
91 89 89 88 89 90 89 90 91 87 87 88 87 87 83 81 77 75 76 78 81 87 93 85 83 87 86 86 92 90 88 90 90 91 90 90 86 80 77 79 79 79 78 77 78 78 78 78 78 79 80 80 80 79 80 80 80 79 78 77 77 77 76 75 74 73 73 73 73 73 73 74 76 76
87 90 89 89 88 90 91 91 94 87 88 87 88 88 85 83 79 78 75 76 82 83 90 93 87 84 86 89 89 93 88 89 91 90 91 92 91 80 77 79 78 78 78 77 77 77 78 78 78 79 79 79 79 79 79 80 80 79 78 77 77 77 76 74 73 73 73 73 73 73 73 73 74 75
88 88 88 88 87 89 90 90 92 91 86 87 87 88 84 85 84 81 78 75 80 87 83 89 94 92 89 95 94 96 91 90 91 92 90 90 88 81 81 78 78 77 77 76 76 76 76 76 76 76 76 76 77 77 78 78 79 79 79 78 77 76 75 74 73 73 73 73 73 73 73 73 74 74
90 90 88 88 86 88 88 88 90 89 89 90 88 87 86 84 86 83 80 78 78 84 87 87 90 95 91 91 90 90 94 97 89 91 89 89 85 88 91 87 79 78 77 76 76 75 74 74 74 75 75 76 76 77 78 78 78 78 78 78 77 75 74 73 73 73 73 73 73 73 73 73 73 74
88 87 87 88 88 88 87 87 89 90 90 88 85 86 84 83 82 81 80 79 79 83 86 86 88 91 91 91 90 89 91 90 90 90 91 90 91 92 92 92 79 77 76 76 75 74 74 73 73 73 74 75 76 76 77 76 76 76 76 76 74 73 73 73 73 73 73 73 73 73 73 73 73 74
89 88 87 87 88 88 87 89 90 91 91 91 88 82 81 79 80 81 82 80 79 79 83 84 88 87 91 87 90 88 89 89 89 90 90 94 92 93 92 90 88 74 77 76 75 74 73 72 72 72 73 74 75 75 75 74 74 74 75 74 72 71 72 72 73 72 72 72 72 73 73 73 73 73
87 87 86 88 88 92 89 89 90 92 90 89 87 84 82 80 82 83 83 81 80 80 82 85 86 85 87 87 87 89 91 88 90 87 89 93 97 96 93 92 98 74 76 76 76 74 73 73 72 72 71 73 73 73 73 72 71 72 72 70 70 71 71 70 71 71 72 71 72 72 72 72 72 73
87 87 86 88 89 89 87 87 86 85 86 86 86 87 85 86 87 84 85 83 81 81 80 82 83 86 84 86 89 91 90 90 88 89 89 91 93 93 96 95 97 82 74 76 74 74 74 72 71 71 71 71 71 71 71 70 69 68 69 69 69 69 69 68 68 70 70 70 69 71 72 72 72 72
87 87 87 88 88 88 86 87 87 88 87 88 86 87 83 84 85 84 83 82 83 82 81 82 84 85 86 87 87 88 87 87 87 89 86 89 88 87 93 98 98 86 73 74 74 73 73 73 72 71 71 70 69 69 69 69 68 68 67 66 66 67 67 67 67 67 68 68 67 68 69 71 71 70
89 89 87 88 88 88 87 87 86 86 85 84 84 85 86 84 84 85 85 85 84 83 82 82 83 84 85 86 85 86 87 86 86 85 85 86 87 88 87 92 97 98 98 96 90 77 73 72 70 72 72 70 69 69 68 69 68 66 65 63 64 67 66 65 66 66 65 65 65 66 67 69 69 69
91 91 90 89 89 88 88 88 87 87 87 87 86 85 85 86 84 84 85 85 84 84 83 84 84 84 86 85 82 85 88 86 85 83 84 83 86 87 86 85 91 96 96 90 84 86 85 81 78 73 69 70 70 69 68 68 67 67 65 63 62 63 64 64 64 63 64 65 65 64 64 64 67 69
93 92 92 93 92 90 88 88 88 87 85 86 85 86 86 84 84 83 85 84 83 83 83 83 83 84 82 82 85 87 85 84 83 86 85 82 83 85 84 86 86 89 88 88 95 90 89 88 80 74 73 72 71 69 69 69 70 69 67 64 65 64 63 63 63 63 62 63 63 64 64 63 64 66
89 91 92 92 91 89 92 92 89 88 88 88 84 84 85 84 84 84 84 84 82 82 82 81 83 82 81 81 82 82 83 82 81 83 85 84 84 84 83 84 87 88 87 88 92 93 92 90 91 93 92 89 78 76 72 75 73 70 67 65 66 65 64 62 62 62 62 62 62 62 63 63 62 62
89 91 93 94 92 90 92 91 90 86 85 86 89 85 84 83 83 83 82 81 82 82 80 81 81 80 81 83 83 83 85 85 84 84 82 81 82 82 82 82 85 88 88 88 84 86 91 92 90 90 89 93 91 89 84 80 81 74 68 67 67 66 65 63 62 61 61 61 61 61 61 61 62 61
89 91 91 92 92 89 89 89 87 86 85 85 84 84 85 85 83 82 81 81 81 80 81 82 81 81 80 82 84 84 87 86 84 83 82 82 81 79 77 77 81 86 86 83 82 82 86 88 85 86 89 92 92 93 90 81 74 74 70 69 68 67 66 65 64 62 61 61 61 61 60 60 61 61
89 89 91 93 93 90 89 90 86 86 85 83 83 82 82 82 82 81 81 80 79 80 80 79 80 81 80 81 82 84 84 82 82 82 81 81 80 79 78 78 78 83 86 82 80 81 85 87 86 85 89 91 93 95 83 79 73 71 71 69 68 67 66 66 66 64 62 62 62 62 62 61 61 61
86 87 87 90 85 90 90 89 89 86 85 82 81 82 82 82 81 75 73 75 80 82 79 79 80 81 81 81 82 83 82 82 80 80 79 80 80 80 78 78 80 82 84 82 80 80 85 86 84 85 87 89 91 93 83 74 72 70 70 69 68 67 67 66 65 65 64 63 61 60 60 61 61 61
85 79 78 78 79 81 79 77 80 87 87 86 85 84 84 85 86 81 76 74 74 77 80 79 78 80 82 81 82 83 83 81 79 78 78 79 78 78 78 80 81 83 88 83 82 79 82 86 85 82 85 89 89 89 82 76 76 71 69 68 67 66 67 66 65 64 64 63 62 61 59 59 59 59
77 76 78 78 79 79 75 73 72 80 84 85 86 85 85 86 86 84 85 86 85 81 84 83 83 83 84 84 83 83 83 83 81 81 80 80 80 81 82 82 83 84 85 86 83 78 81 86 83 83 85 90 87 88 81 78 75 75 68 67 67 66 66 66 65 64 63 63 62 61 60 59 58 58
78 78 78 77 79 77 74 69 67 72 77 83 84 83 84 85 87 88 87 79 80 84 85 84 85 86 85 78 80 80 81 80 80 81 82 81 80 79 78 78 83 82 86 87 83 80 80 84 84 83 87 87 85 86 87 81 77 75 73 68 66 65 64 65 65 65 64 63 62 61 60 58 57 57
77 78 78 78 76 75 73 65 61 65 77 82 82 81 83 84 86 85 85 70 71 71 69 68 69 69 67 66 67 67 67 73 77 77 77 77 81 77 74 76 77 80 84 86 84 81 79 82 82 82 84 83 83 85 86 88 81 75 74 70 67 65 64 64 64 64 64 63 63 61 61 59 57 58
74 78 81 79 76 74 70 61 60 63 76 80 80 81 81 82 83 84 85 87 86 77 75 74 71 70 69 68 68 67 66 67 71 77 76 81 79 76 75 74 76 78 81 82 85 79 78 82 82 80 82 81 84 86 85 85 83 78 77 70 65 64 64 63 63 64 64 63 62 62 60 59 58 61
75 73 73 73 72 71 64 57 59 61 73 78 79 79 80 80 81 78 79 81 81 80 81 82 83 82 81 80 81 83 76 72 76 78 80 81 78 75 75 75 75 74 77 81 84 78 78 79 81 79 77 76 80 84 83 84 84 85 85 86 82 68 63 63 62 62 62 62 62 61 60 58 58 66
76 74 71 67 61 59 57 55 55 57 59 72 77 78 79 77 75 76 78 79 79 78 80 80 82 81 82 83 84 85 87 86 81 80 82 81 78 77 76 76 76 74 76 81 84 78 80 80 78 80 79 74 74 80 82 82 84 84 85 83 84 79 74 68 66 63 61 61 60 61 60 58 58 68
76 76 76 72 62 57 56 55 53 53 55 61 71 76 76 74 68 67 74 75 78 78 78 79 80 82 82 83 84 85 86 84 82 83 83 82 81 79 77 77 77 77 80 83 79 80 77 79 78 79 78 78 79 78 79 80 82 83 83 84 83 83 83 83 80 82 70 62 58 57 57 58 57 63
72 75 76 72 63 56 57 55 53 51 54 55 67 71 60 58 59 69 71 73 75 78 79 80 80 80 81 83 84 85 85 87 85 85 83 82 82 81 81 79 77 77 78 83 77 82 79 77 79 78 77 75 76 76 75 76 80 82 83 84 83 83 83 82 82 81 82 83 80 68 67 59 57 57
70 74 76 72 64 55 55 53 53 53 52 62 68 55 53 57 58 64 71 74 75 75 78 79 77 77 79 80 81 81 80 83 81 83 83 83 82 81 83 83 85 83 83 83 84 82 80 78 80 77 74 75 73 74 74 74 77 80 80 82 83 84 84 83 81 81 81 81 80 71 66 61 57 58
72 72 72 68 55 52 52 52 55 55 58 65 59 54 55 57 65 70 71 72 74 76 77 76 76 77 79 79 78 78 79 81 79 81 82 81 81 80 81 82 83 83 82 84 84 83 82 80 79 79 76 74 72 72 72 76 77 77 77 80 81 84 85 83 82 81 81 79 80 80 79 79 74 65
71 64 57 54 54 56 54 53 53 58 61 57 55 55 57 66 71 73 74 74 77 75 75 75 77 78 79 79 79 79 79 80 80 79 80 80 80 81 81 80 80 80 85 86 84 83 81 80 79 79 77 76 74 74 74 74 75 76 77 77 77 80 80 82 81 79 78 79 78 77 78 78 79 74
63 60 60 58 59 62 64 68 71 73 74 68 65 62 64 70 73 74 75 76 76 75 76 76 76 77 77 78 78 78 80 78 77 77 77 76 77 78 77 76 77 80 84 84 86 83 82 81 79 78 76 76 75 74 74 74 73 76 75 76 77 79 79 79 79 79 78 77 77 78 79 80 79 78
69 70 71 70 64 61 62 63 64 65 68 69 73 74 75 75 76 77 76 76 76 73 74 75 75 76 77 78 77 76 75 76 76 76 74 76 76 75 75 73 74 76 78 82 84 82 81 80 79 78 74 75 75 75 75 75 73 74 75 76 76 73 77 79 79 78 78 77 78 77 78 79 79 80
67 69 70 68 70 71 71 71 72 72 71 72 74 76 78 80 80 81 84 80 76 75 76 75 76 75 76 75 75 75 75 75 75 76 75 73 73 74 74 72 72 74 76 79 81 80 82 79 77 77 76 74 73 74 74 74 73 74 74 76 76 78 79 78 78 78 77 77 75 75 75 77 78 79
67 68 69 70 71 72 73 74 75 76 74 74 76 81 80 80 81 77 75 74 74 74 75 74 73 73 73 73 74 74 74 73 74 74 72 72 72 73 73 72 72 72 72 73 75 76 77 77 78 77 76 76 75 73 72 71 72 74 74 75 75 76 78 78 77 75 75 73 72 73 74 75 77 77
62 66 69 71 73 76 76 77 77 80 79 78 79 79 76 76 73 73 72 71 73 74 73 73 72 71 72 72 72 72 72 71 73 71 70 70 72 71 71 71 70 72 72 72 73 74 74 74 74 74 74 74 76 74 73 71 71 73 74 75 74 73 74 75 75 74 72 72 71 71 72 73 74 76
66 68 68 72 75 75 77 77 80 78 77 77 77 78 79 74 73 71 71 71 72 73 73 72 72 71 71 70 71 70 70 70 71 72 71 72 71 71 71 70 70 70 71 71 71 71 72 71 70 70 69 69 69 71 75 75 73 72 72 73 73 72 71 73 73 73 72 71 71 68 70 72 73 76
65 68 71 72 73 74 74 75 75 74 75 74 73 73 73 74 73 71 71 70 73 72 73 71 70 71 70 71 70 70 69 69 70 70 70 70 70 70 70 70 69 69 70 70 70 71 70 70 69 67 66 67 67 67 69 72 71 71 69 69 71 70 71 71 71 71 71 71 70 69 69 69 72 75
67 70 72 72 73 73 72 72 72 72 74 74 73 72 72 72 72 71 70 69 71 72 71 71 71 70 70 69 69 68 69 69 69 69 69 69 69 69 68 68 68 68 68 68 69 69 69 68 68 67 67 66 64 62 65 70 69 69 71 69 69 70 69 69 69 68 71 71 71 72 71 72 73 75
65 69 71 72 72 72 71 71 71 71 71 72 72 72 72 72 72 70 70 69 69 70 70 70 70 69 70 69 68 68 69 69 69 68 68 68 67 67 67 66 67 67 66 66 67 67 68 68 67 67 66 63 60 61 61 66 67 69 69 69 68 69 70 68 68 68 70 72 72 72 73 72 72 74
67 69 67 66 67 69 70 69 70 69 69 69 69 69 69 69 69 68 69 69 68 68 68 68 68 68 68 69 69 68 67 67 66 66 67 67 66 65 65 65 64 64 64 64 66 66 67 67 67 66 64 62 61 61 63 62 64 68 69 64 67 68 68 68 68 69 69 70 71 71 72 73 73 71
68 68 67 67 66 67 66 66 66 66 67 67 68 68 68 67 66 67 67 66 66 67 68 68 68 67 68 68 68 69 67 66 65 66 66 65 64 64 63 63 62 62 62 63 64 65 65 66 65 64 64 64 65 67 67 67 68 69 70 70 63 64 67 68 68 67 67 68 67 67 67 69 68 71
68 67 67 67 66 66 66 66 66 66 66 66 66 66 66 65 66 66 66 66 66 66 66 67 66 65 65 65 65 64 63 63 64 63 62 61 61 61 61 61 61 62 62 61 62 62 63 64 66 65 66 66 67 67 66 63 62 65 67 69 64 64 63 62 65 65 65 66 66 66 65 65 66 68
67 66 67 66 66 66 66 65 66 66 65 65 65 65 64 64 65 67 66 67 65 64 64 64 63 63 63 63 62 61 60 60 59 59 59 60 59 60 60 61 60 60 59 58 59 60 63 64 65 65 65 64 63 60 58 59 60 62 63 66 68 64 64 64 64 64 65 66 65 63 63 64 65 63
66 66 66 66 66 65 65 65 65 65 65 65 65 65 64 65 64 64 65 64 63 64 63 62 62 62 60 59 59 59 58 58 57 57 58 59 58 58 58 58 58 59 59 59 60 61 61 62 62 62 62 61 60 60 58 59 59 60 60 62 63 66 67 65 63 62 62 63 63 63 64 62 60 58
63 63 64 64 64 65 65 65 66 65 65 65 65 65 65 64 64 64 63 62 62 61 61 59 57 57 56 57 57 57 57 57 57 56 57 57 57 57 57 57 57 57 57 57 57 58 60 60 60 60 58 58 59 57 57 57 58 59 59 60 61 62 63 65 65 64 64 64 62 61 60 60 61 61
63 62 62 63 63 64 65 66 65 64 64 64 63 63 63 64 63 64 63 63 61 59 57 56 56 56 56 56 56 55 55 56 56 56 56 56 56 56 56 56 56 55 55 56 55 55 57 57 58 58 57 58 58 57 58 58 57 57 58 58 59 60 61 61 60 60 62 64 64 63 62 62 62 61
MSLP
1019.36 1019.40 1019.52 1019.44 1019.36 1019.12 1018.92 1018.96 1018.88 1019.04 1019.08 1019.28 1019.48 1019.56 1020.64 1021.28 1022.64 1023.24 1023.04 1022.20 1021.72 1020.16 1019.28 1020.08 1019.04 1018.12 1017.96 1018.04 1017.40 1017.24 1017.36 1017.28 1017.12 1017.08 1017.12 1017.12 1017.28 1017.36 1017.36 1017.40 1017.52 1017.64 1017.68 1017.72 1017.80 1017.84 1017.80 1017.80 1017.80 1017.88 1017.96 1018.00 1018.08 1018.12 1018.16 1018.16 1018.20 1018.24 1018.24 1018.28 1018.32 1018.36 1018.40 1018.44 1018.48 1018.48 1018.52 1018.52 1018.52 1018.56 1018.64 1018.68 1018.68 1018.72
1019.36 1019.28 1019.32 1019.36 1019.52 1019.04 1019.04 1019.00 1018.76 1019.12 1019.12 1019.32 1019.40 1019.52 1019.76 1020.12 1021.76 1022.20 1023.24 1022.84 1021.24 1020.84 1019.36 1018.84 1019.24 1018.28 1018.08 1017.72 1017.64 1017.32 1017.32 1017.12 1017.04 1017.08 1017.00 1017.04 1017.00 1017.04 1017.04 1017.12 1017.24 1017.36 1017.44 1017.40 1017.52 1017.56 1017.60 1017.64 1017.72 1017.72 1017.72 1017.80 1017.88 1017.96 1018.00 1018.00 1018.04 1018.08 1018.12 1018.16 1018.20 1018.24 1018.28 1018.36 1018.40 1018.40 1018.40 1018.44 1018.48 1018.48 1018.48 1018.48 1018.56 1018.60
1019.20 1019.40 1019.56 1019.32 1019.40 1019.20 1019.28 1019.12 1018.96 1018.92 1019.20 1019.28 1019.32 1019.32 1019.36 1019.80 1020.24 1021.12 1021.76 1023.12 1021.20 1020.08 1020.72 1019.36 1018.28 1018.28 1018.16 1017.60 1017.48 1017.36 1017.32 1017.20 1017.16 1017.04 1017.00 1016.96 1016.84 1016.88 1016.80 1016.84 1016.96 1017.08 1017.12 1017.08 1017.16 1017.24 1017.32 1017.40 1017.48 1017.56 1017.56 1017.60 1017.64 1017.72 1017.80 1017.84 1017.88 1017.88 1017.92 1018.00 1018.04 1018.08 1018.12 1018.20 1018.28 1018.32 1018.36 1018.32 1018.36 1018.36 1018.40 1018.40 1018.36 1018.40
1019.08 1019.24 1019.56 1019.48 1019.52 1019.40 1019.32 1019.32 1019.12 1019.08 1018.92 1019.00 1019.28 1019.40 1019.60 1019.72 1019.72 1020.16 1021.04 1021.92 1022.16 1020.16 1020.04 1019.60 1018.92 1018.12 1018.16 1017.72 1017.92 1017.84 1017.52 1017.12 1017.12 1017.12 1017.04 1016.88 1016.80 1016.72 1016.48 1016.20 1016.44 1016.60 1016.76 1016.80 1016.80 1016.88 1017.08 1017.16 1017.20 1017.28 1017.36 1017.40 1017.40 1017.44 1017.48 1017.56 1017.60 1017.68 1017.72 1017.76 1017.84 1017.92 1017.96 1018.04 1018.12 1018.16 1018.20 1018.24 1018.24 1018.24 1018.28 1018.28 1018.28 1018.28
1019.20 1019.36 1019.56 1019.52 1019.40 1019.20 1019.56 1019.48 1019.28 1019.08 1019.08 1019.08 1019.20 1019.48 1019.88 1020.28 1020.24 1020.48 1021.00 1021.76 1021.68 1020.48 1019.28 1019.48 1019.32 1018.52 1018.20 1018.40 1017.88 1018.16 1017.96 1017.76 1017.40 1017.12 1016.96 1016.84 1016.80 1016.52 1016.36 1016.12 1016.12 1016.24 1016.52 1016.52 1016.48 1016.60 1016.80 1016.88 1016.92 1017.00 1017.04 1017.04 1017.04 1017.12 1017.16 1017.24 1017.32 1017.40 1017.48 1017.52 1017.64 1017.72 1017.80 1017.88 1017.96 1018.00 1018.04 1018.08 1018.12 1018.12 1018.12 1018.12 1018.16 1018.16
1019.20 1019.24 1019.56 1019.52 1019.36 1019.12 1019.40 1019.40 1019.36 1019.12 1019.08 1019.24 1019.72 1019.96 1019.92 1020.48 1020.52 1020.16 1020.88 1021.20 1021.40 1021.68 1020.12 1019.88 1018.96 1018.88 1018.32 1019.12 1017.92 1018.40 1018.40 1018.12 1017.60 1017.52 1017.28 1016.88 1016.64 1016.56 1016.32 1016.24 1016.12 1016.24 1016.32 1016.28 1016.20 1016.48 1016.64 1016.64 1016.64 1016.72 1016.76 1016.72 1016.72 1016.80 1016.88 1016.96 1017.04 1017.08 1017.16 1017.28 1017.40 1017.52 1017.60 1017.64 1017.72 1017.80 1017.88 1017.92 1017.92 1017.96 1017.96 1018.00 1018.00 1018.00
1019.20 1019.36 1019.44 1019.44 1019.24 1019.00 1019.20 1019.28 1019.28 1019.04 1019.12 1019.16 1019.60 1019.88 1019.84 1020.28 1020.12 1020.04 1020.12 1020.76 1021.40 1021.36 1020.92 1019.80 1019.80 1019.40 1018.88 1019.00 1018.76 1018.20 1017.96 1017.76 1017.56 1017.76 1017.56 1017.28 1016.88 1016.52 1016.40 1016.32 1016.00 1016.16 1016.24 1016.12 1016.16 1016.48 1016.52 1016.48 1016.52 1016.56 1016.56 1016.52 1016.48 1016.56 1016.64 1016.68 1016.76 1016.84 1016.88 1017.04 1017.16 1017.28 1017.36 1017.44 1017.52 1017.56 1017.64 1017.68 1017.72 1017.76 1017.80 1017.80 1017.84 1017.84
1019.20 1019.28 1019.40 1019.32 1019.08 1019.00 1019.32 1019.36 1019.44 1019.40 1019.32 1019.44 1019.44 1019.60 1019.68 1019.60 1019.72 1019.88 1019.96 1020.08 1020.68 1020.80 1021.32 1020.36 1020.08 1019.40 1019.48 1019.00 1018.32 1018.04 1017.80 1017.84 1017.80 1017.68 1017.48 1017.12 1017.08 1016.80 1016.44 1016.28 1016.12 1016.08 1016.12 1016.04 1016.24 1016.44 1016.36 1016.28 1016.40 1016.48 1016.36 1016.28 1016.28 1016.32 1016.40 1016.48 1016.52 1016.56 1016.64 1016.76 1016.88 1017.00 1017.08 1017.20 1017.28 1017.32 1017.40 1017.48 1017.52 1017.56 1017.56 1017.60 1017.64 1017.64
1019.00 1019.04 1019.16 1019.00 1018.96 1019.04 1019.44 1019.44 1019.56 1019.36 1019.64 1019.40 1019.56 1019.76 1019.68 1019.76 1019.64 1019.72 1019.92 1020.00 1020.04 1020.56 1020.96 1020.60 1019.64 1019.16 1019.04 1018.60 1018.36 1017.96 1018.36 1018.12 1017.80 1017.56 1017.64 1017.48 1017.24 1017.00 1016.56 1016.40 1016.12 1016.04 1016.00 1016.08 1016.36 1016.28 1016.12 1015.96 1016.16 1016.28 1016.12 1016.04 1016.04 1016.16 1016.20 1016.20 1016.24 1016.32 1016.44 1016.52 1016.60 1016.68 1016.76 1016.84 1016.96 1017.04 1017.12 1017.24 1017.32 1017.36 1017.40 1017.40 1017.44 1017.44
1018.64 1018.80 1018.88 1018.80 1018.84 1019.00 1019.36 1019.48 1019.44 1019.40 1019.60 1019.64 1019.92 1019.92 1019.68 1019.76 1019.64 1019.80 1019.76 1019.68 1019.84 1020.04 1020.24 1020.24 1020.16 1019.32 1019.36 1019.08 1018.68 1018.08 1017.92 1018.36 1018.48 1018.16 1017.68 1017.28 1017.08 1017.12 1017.16 1016.80 1016.40 1016.08 1015.96 1016.16 1016.08 1016.00 1015.84 1015.76 1015.96 1015.92 1015.88 1015.72 1015.76 1015.88 1015.92 1015.92 1015.88 1016.00 1016.16 1016.28 1016.32 1016.36 1016.40 1016.48 1016.60 1016.68 1016.84 1016.96 1017.04 1017.12 1017.20 1017.24 1017.24 1017.28
1018.28 1018.36 1018.44 1018.52 1018.60 1018.84 1018.92 1019.16 1019.32 1019.36 1019.44 1019.60 1019.68 1019.56 1019.60 1019.60 1019.72 1019.84 1019.76 1019.68 1019.80 1019.92 1020.08 1019.88 1019.60 1019.60 1019.00 1018.96 1019.40 1018.24 1017.60 1017.72 1018.04 1018.56 1018.48 1018.36 1017.36 1017.08 1017.20 1017.36 1016.64 1016.20 1016.16 1015.96 1015.76 1015.48 1015.28 1015.36 1015.60 1015.72 1015.68 1015.56 1015.60 1015.64 1015.60 1015.56 1015.60 1015.68 1015.84 1016.00 1016.08 1016.12 1016.16 1016.20 1016.24 1016.36 1016.44 1016.56 1016.72 1016.84 1016.92 1017.04 1017.08 1017.08
1017.96 1018.00 1018.08 1018.16 1018.20 1018.32 1018.48 1018.64 1018.80 1018.92 1019.36 1019.32 1019.56 1019.28 1019.40 1019.56 1019.76 1019.96 1019.84 1019.88 1019.96 1020.12 1020.16 1020.20 1020.12 1019.68 1019.64 1019.12 1018.52 1018.04 1018.00 1018.48 1018.36 1017.96 1018.24 1018.80 1018.40 1017.88 1017.24 1017.00 1017.16 1016.60 1016.44 1016.52 1015.96 1015.40 1015.24 1015.28 1015.40 1015.32 1015.36 1015.48 1015.44 1015.28 1015.20 1015.24 1015.24 1015.36 1015.52 1015.64 1015.76 1015.84 1015.88 1015.92 1016.00 1016.08 1016.16 1016.20 1016.32 1016.44 1016.60 1016.72 1016.80 1016.88
1018.00 1017.92 1017.92 1018.04 1018.28 1018.20 1018.12 1018.20 1018.48 1018.68 1018.72 1019.12 1019.60 1019.44 1019.32 1019.52 1019.72 1019.88 1019.96 1020.00 1020.12 1020.20 1020.28 1020.32 1019.84 1019.88 1019.76 1019.40 1019.24 1019.24 1019.00 1019.12 1019.08 1018.20 1018.08 1018.48 1018.12 1017.84 1017.76 1017.24 1016.60 1016.56 1016.80 1016.48 1016.16 1016.04 1015.76 1015.80 1015.60 1015.32 1015.32 1015.04 1014.88 1014.80 1014.84 1014.84 1014.92 1015.04 1015.08 1015.16 1015.28 1015.44 1015.52 1015.60 1015.68 1015.76 1015.84 1015.92 1016.00 1016.08 1016.20 1016.32 1016.44 1016.56
1018.12 1018.04 1017.80 1017.80 1017.96 1017.84 1017.92 1018.12 1018.32 1018.40 1018.44 1018.52 1018.76 1019.16 1019.36 1019.60 1019.84 1020.00 1020.16 1020.24 1020.16 1020.24 1020.48 1020.40 1020.20 1020.28 1020.08 1019.56 1019.20 1019.28 1018.88 1018.36 1018.28 1018.56 1018.60 1019.08 1018.52 1018.24 1018.28 1017.72 1017.08 1016.36 1016.56 1016.88 1017.08 1016.52 1015.72 1015.80 1015.72 1015.44 1015.48 1014.84 1014.48 1014.40 1014.36 1014.40 1014.20 1014.28 1014.56 1014.68 1014.80 1014.92 1015.08 1015.20 1015.32 1015.40 1015.48 1015.60 1015.72 1015.80 1015.88 1016.00 1016.12 1016.20
1018.20 1017.92 1017.80 1017.76 1017.76 1017.88 1018.04 1018.04 1018.12 1018.20 1018.36 1018.48 1018.60 1018.72 1018.84 1019.00 1019.44 1019.96 1020.24 1020.24 1020.12 1020.36 1020.44 1020.12 1020.08 1020.12 1020.12 1019.68 1019.20 1019.20 1018.88 1018.76 1018.92 1019.00 1018.88 1018.96 1018.84 1019.16 1019.44 1019.60 1017.84 1016.36 1016.68 1017.24 1017.48 1016.96 1015.80 1015.64 1016.12 1015.64 1015.36 1014.88 1014.56 1014.24 1014.04 1013.80 1013.88 1013.92 1014.00 1014.16 1014.28 1014.48 1014.64 1014.84 1014.96 1015.08 1015.16 1015.28 1015.36 1015.52 1015.64 1015.76 1015.84 1015.92
1018.16 1018.20 1017.96 1017.84 1017.88 1017.96 1017.92 1017.96 1018.20 1018.28 1018.32 1018.48 1018.56 1018.68 1018.80 1018.92 1018.96 1019.12 1019.68 1020.16 1020.40 1020.28 1020.48 1020.52 1020.28 1020.16 1020.16 1019.80 1019.40 1019.32 1019.28 1019.36 1019.08 1018.92 1018.96 1019.04 1019.16 1019.28 1019.36 1019.16 1019.24 1017.24 1016.44 1017.40 1017.68 1017.32 1015.84 1015.40 1015.72 1015.80 1015.28 1014.76 1014.44 1014.08 1013.88 1013.72 1013.72 1013.72 1013.76 1013.88 1014.00 1014.12 1014.32 1014.48 1014.64 1014.76 1014.88 1014.96 1015.04 1015.16 1015.24 1015.36 1015.48 1015.56
1018.16 1018.28 1018.40 1018.32 1018.96 1018.44 1018.16 1018.12 1018.08 1018.20 1018.44 1018.48 1018.44 1018.56 1018.72 1018.84 1018.92 1019.04 1019.12 1019.20 1019.48 1019.60 1020.08 1020.32 1020.20 1019.96 1019.72 1019.80 1019.48 1019.08 1019.12 1018.80 1019.36 1019.12 1019.20 1019.04 1018.96 1018.92 1019.08 1018.80 1018.28 1017.24 1016.48 1017.08 1017.52 1017.60 1016.28 1015.68 1015.88 1015.92 1015.12 1014.64 1014.28 1014.04 1013.84 1013.88 1013.80 1013.76 1013.72 1013.72 1013.80 1013.92 1014.04 1014.16 1014.32 1014.48 1014.56 1014.64 1014.72 1014.80 1014.84 1014.92 1015.04 1015.12
1018.56 1019.32 1019.76 1019.72 1019.52 1019.08 1019.16 1019.04 1018.84 1018.48 1018.56 1018.60 1018.72 1018.92 1018.96 1018.96 1018.76 1018.80 1018.84 1018.88 1019.04 1019.16 1019.44 1019.72 1020.12 1019.40 1019.08 1019.48 1019.08 1018.60 1018.40 1018.96 1019.32 1019.28 1019.32 1018.92 1019.00 1018.92 1018.76 1017.88 1017.52 1016.76 1016.12 1017.04 1017.20 1017.52 1016.68 1015.72 1015.88 1016.04 1015.24 1014.48 1014.28 1014.04 1013.88 1013.72 1013.64 1013.68 1013.76 1013.84 1013.88 1013.88 1013.88 1013.96 1014.12 1014.24 1014.28 1014.32 1014.36 1014.44 1014.52 1014.56 1014.68 1014.76
1019.28 1019.40 1019.24 1019.28 1019.64 1019.72 1019.64 1019.64 1019.52 1019.20 1019.04 1018.92 1018.88 1018.92 1018.96 1018.80 1018.60 1018.64 1018.64 1018.64 1018.68 1018.92 1018.80 1018.96 1018.96 1018.76 1018.44 1018.44 1018.44 1018.32 1018.16 1018.32 1018.40 1018.36 1018.56 1018.48 1018.40 1018.04 1017.44 1017.28 1016.92 1016.64 1015.84 1016.04 1016.76 1018.16 1016.80 1015.68 1016.12 1016.00 1015.36 1014.76 1014.56 1014.16 1013.96 1013.68 1013.52 1013.48 1013.60 1013.72 1013.84 1013.88 1013.88 1014.00 1014.04 1014.04 1014.04 1014.08 1014.08 1014.08 1014.12 1014.24 1014.32 1014.44
1018.80 1018.76 1018.84 1019.12 1019.48 1019.80 1019.92 1019.84 1019.68 1019.60 1019.48 1019.20 1019.20 1019.20 1019.04 1018.88 1018.56 1018.36 1018.16 1018.12 1018.20 1018.24 1018.36 1018.44 1018.48 1018.32 1018.16 1018.16 1018.20 1018.08 1018.00 1017.92 1017.76 1017.76 1017.76 1017.76 1017.92 1018.20 1018.44 1018.60 1017.60 1017.48 1016.20 1015.92 1016.72 1017.52 1017.20 1015.96 1016.48 1016.20 1015.28 1014.92 1015.04 1014.40 1014.04 1013.60 1013.48 1013.40 1013.44 1013.56 1013.72 1013.88 1014.04 1014.00 1013.88 1013.80 1013.76 1013.80 1013.80 1013.80 1013.80 1013.88 1013.96 1014.08
1019.16 1019.24 1019.32 1019.56 1019.88 1020.00 1020.08 1019.88 1019.52 1019.24 1019.08 1019.16 1019.28 1019.40 1019.36 1019.16 1018.96 1018.80 1018.28 1018.12 1018.12 1018.24 1018.32 1018.32 1018.20 1018.12 1018.04 1017.96 1017.80 1017.68 1017.56 1017.60 1017.68 1018.12 1018.60 1018.72 1018.16 1018.72 1019.28 1018.84 1018.44 1018.04 1017.04 1016.36 1016.44 1017.16 1017.60 1016.52 1016.44 1016.40 1015.64 1015.36 1015.24 1014.80 1014.24 1013.68 1013.48 1013.44 1013.36 1013.36 1013.44 1013.48 1013.52 1013.56 1013.56 1013.52 1013.52 1013.52 1013.48 1013.48 1013.48 1013.56 1013.76 1014.04
1019.32 1019.16 1019.08 1019.12 1019.36 1019.60 1019.68 1019.64 1019.48 1019.36 1019.12 1019.32 1019.48 1019.56 1019.64 1019.60 1019.40 1019.00 1018.60 1018.44 1018.28 1018.12 1018.08 1018.00 1017.92 1017.80 1017.68 1017.60 1017.52 1017.44 1017.32 1017.20 1017.60 1018.16 1019.00 1018.32 1018.28 1019.00 1019.04 1019.32 1018.72 1018.08 1017.36 1016.88 1016.20 1017.32 1017.56 1016.68 1016.32 1016.52 1015.80 1015.44 1015.08 1014.76 1014.32 1013.96 1013.72 1013.48 1013.40 1013.32 1013.32 1013.32 1013.28 1013.24 1013.28 1013.28 1013.28 1013.28 1013.24 1013.28 1013.36 1013.56 1013.88 1014.04
1019.52 1019.72 1019.76 1019.80 1019.80 1019.84 1020.00 1019.84 1019.60 1019.52 1019.36 1019.48 1019.60 1019.56 1019.72 1019.76 1019.64 1019.76 1019.40 1019.20 1019.12 1018.88 1018.68 1018.36 1018.04 1017.84 1017.56 1017.36 1017.28 1017.08 1016.80 1016.72 1017.12 1017.60 1017.92 1017.84 1018.44 1019.08 1019.00 1018.88 1018.68 1018.80 1018.00 1016.76 1016.00 1017.60 1017.24 1017.04 1016.48 1016.52 1016.84 1017.00 1015.68 1014.68 1014.52 1014.28 1013.96 1013.72 1013.52 1013.32 1013.16 1013.08 1013.12 1013.08 1013.04 1012.96 1012.96 1012.92 1012.96 1013.00 1013.12 1013.40 1013.68 1013.72
1019.64 1019.84 1020.04 1020.24 1020.28 1020.16 1020.08 1020.08 1020.08 1019.96 1019.88 1019.80 1019.72 1019.64 1019.72 1019.96 1020.16 1019.76 1019.52 1019.28 1019.20 1019.16 1018.92 1018.60 1018.16 1018.00 1017.56 1017.28 1017.00 1016.72 1016.48 1016.52 1017.12 1017.40 1017.32 1017.48 1017.92 1018.56 1018.68 1018.56 1018.56 1018.96 1018.28 1016.68 1015.92 1017.12 1016.80 1016.56 1016.92 1016.16 1016.72 1017.52 1017.40 1015.68 1014.80 1014.64 1014.28 1013.92 1013.56 1013.44 1013.44 1013.04 1012.84 1012.84 1012.80 1012.64 1012.68 1012.68 1012.76 1012.80 1012.92 1013.24 1013.40 1013.44
1019.88 1019.92 1019.92 1020.28 1020.52 1020.24 1020.08 1020.08 1020.16 1020.12 1020.16 1020.12 1019.92 1019.76 1019.96 1020.04 1020.00 1019.88 1019.80 1019.48 1019.16 1019.12 1018.80 1018.52 1018.16 1017.92 1017.68 1017.44 1017.08 1016.84 1016.76 1017.00 1017.12 1017.12 1017.08 1017.20 1017.40 1017.88 1018.32 1018.40 1018.36 1018.24 1017.48 1016.44 1015.96 1016.60 1017.32 1016.76 1016.96 1016.40 1016.48 1016.56 1016.48 1016.28 1015.48 1015.12 1014.52 1014.12 1013.68 1013.60 1013.64 1013.12 1012.92 1012.76 1012.56 1012.44 1012.36 1012.44 1012.48 1012.52 1012.68 1012.92 1013.12 1013.24
1019.76 1019.80 1019.84 1020.28 1020.32 1020.16 1019.92 1019.96 1020.00 1020.12 1020.16 1020.16 1020.00 1019.84 1019.92 1019.96 1019.88 1019.76 1019.76 1019.56 1019.28 1019.00 1018.76 1018.52 1018.48 1018.40 1018.28 1017.96 1017.60 1017.36 1017.32 1017.20 1017.28 1017.28 1017.24 1017.16 1017.08 1017.04 1017.16 1017.60 1018.04 1018.16 1017.64 1016.20 1015.96 1016.36 1016.88 1017.04 1016.76 1016.88 1016.72 1016.96 1016.76 1016.40 1016.40 1015.76 1014.84 1014.24 1013.88 1013.60 1013.40 1013.16 1012.84 1012.80 1012.64 1012.56 1012.36 1012.20 1012.16 1012.32 1012.40 1012.52 1012.76 1012.88
1019.64 1019.44 1019.60 1019.92 1020.04 1020.12 1020.12 1020.04 1020.00 1019.96 1020.00 1019.96 1019.88 1019.92 1019.88 1019.72 1019.72 1019.68 1019.56 1019.40 1019.32 1019.24 1018.92 1018.84 1018.96 1018.76 1018.44 1018.32 1018.24 1018.16 1018.24 1017.80 1017.68 1017.60 1017.40 1017.20 1017.12 1017.00 1016.76 1016.60 1016.64 1016.92 1016.60 1016.16 1015.76 1015.84 1016.24 1016.72 1016.20 1016.80 1017.28 1016.96 1017.20 1016.64 1016.44 1016.40 1015.64 1014.44 1014.32 1013.88 1013.56 1013.20 1012.72 1012.60 1012.72 1012.64 1012.32 1012.24 1012.20 1012.08 1012.12 1012.12 1012.24 1012.32
1019.72 1019.72 1019.76 1019.88 1020.00 1020.08 1020.04 1019.92 1019.84 1019.84 1019.84 1019.76 1019.64 1019.72 1019.68 1019.60 1019.52 1019.52 1019.48 1019.36 1019.24 1019.12 1019.04 1019.16 1019.12 1018.92 1018.52 1018.44 1018.52 1018.52 1018.28 1018.12 1017.88 1017.72 1017.48 1017.36 1017.16 1017.12 1016.96 1016.76 1016.64 1016.44 1016.32 1016.08 1015.68 1015.52 1015.76 1016.32 1016.36 1016.20 1016.48 1016.92 1017.20 1017.24 1017.00 1015.76 1015.40 1015.04 1015.00 1014.04 1013.72 1013.28 1012.80 1012.64 1012.60 1012.40 1012.20 1012.12 1012.20 1012.16 1012.24 1012.20 1011.96 1012.16
1019.68 1019.72 1019.76 1019.76 1019.84 1019.88 1019.88 1019.76 1019.72 1019.56 1019.48 1019.40 1019.52 1019.52 1019.44 1019.44 1019.44 1019.32 1019.24 1019.16 1019.00 1019.20 1019.32 1019.20 1019.04 1018.84 1018.60 1018.44 1018.36 1018.12 1017.96 1017.80 1017.68 1017.68 1017.56 1017.36 1017.24 1017.00 1016.92 1016.92 1016.84 1016.68 1016.36 1015.92 1015.68 1015.52 1015.60 1015.84 1016.12 1015.96 1016.04 1016.20 1016.68 1016.56 1016.48 1016.36 1015.72 1015.32 1014.92 1014.76 1014.44 1013.52 1013.08 1012.68 1012.44 1012.48 1012.36 1012.24 1012.32 1012.32 1012.36 1012.24 1012.00 1011.72
1019.80 1019.80 1019.72 1019.68 1019.60 1019.60 1019.56 1019.56 1019.56 1019.48 1019.24 1019.28 1019.24 1019.20 1019.20 1019.24 1019.12 1019.04 1018.96 1018.88 1018.96 1019.24 1019.20 1019.12 1019.08 1018.96 1018.64 1018.52 1018.24 1017.96 1017.84 1018.04 1018.16 1018.04 1018.12 1018.00 1017.88 1017.72 1017.72 1017.72 1017.44 1016.92 1016.40 1016.00 1015.68 1015.56 1015.68 1015.80 1015.88 1015.92 1016.12 1016.12 1016.16 1016.40 1016.20 1016.16 1015.88 1015.28 1014.88 1014.92 1014.40 1013.44 1012.92 1012.72 1012.60 1012.40 1012.40 1012.44 1012.28 1012.20 1011.96 1011.76 1011.68 1011.56
1019.88 1019.68 1019.60 1019.56 1019.56 1019.60 1019.48 1019.40 1019.32 1019.40 1019.28 1019.12 1018.92 1018.72 1018.68 1018.72 1018.64 1018.48 1018.52 1018.68 1018.92 1019.20 1019.28 1019.24 1019.20 1018.92 1018.68 1018.36 1018.36 1018.56 1018.48 1018.44 1018.24 1018.04 1018.16 1018.28 1018.28 1018.12 1017.96 1018.08 1018.00 1017.56 1016.88 1016.20 1015.84 1015.72 1015.76 1015.84 1015.88 1015.96 1016.52 1016.36 1016.08 1016.08 1015.84 1015.76 1015.88 1015.48 1014.88 1014.52 1014.44 1015.00 1013.56 1012.88 1012.60 1012.56 1012.32 1012.28 1012.16 1012.00 1011.80 1011.64 1011.48 1011.24
1019.92 1019.76 1019.52 1019.40 1019.28 1019.28 1019.24 1019.12 1019.08 1019.08 1019.04 1018.96 1018.72 1018.48 1018.20 1018.08 1017.96 1017.88 1017.84 1018.20 1018.56 1018.88 1018.92 1019.08 1018.96 1018.88 1018.76 1018.92 1018.84 1018.64 1018.60 1018.56 1018.40 1018.24 1018.44 1018.60 1018.56 1018.24 1018.08 1018.28 1018.24 1017.76 1017.32 1016.80 1016.44 1016.12 1015.96 1015.92 1016.00 1015.96 1016.08 1016.20 1016.44 1016.00 1015.64 1015.72 1015.76 1015.36 1014.96 1014.36 1014.08 1013.68 1013.24 1013.20 1012.92 1012.60 1012.36 1012.44 1012.56 1012.52 1012.24 1012.00 1011.80 1011.36
1019.84 1019.72 1019.56 1019.44 1019.32 1019.24 1019.24 1019.04 1018.80 1018.60 1018.72 1018.80 1018.44 1018.12 1018.12 1017.92 1017.92 1018.32 1018.60 1018.96 1019.12 1019.04 1019.08 1019.28 1019.40 1019.48 1019.32 1019.20 1019.00 1018.92 1018.96 1018.96 1018.84 1018.56 1018.72 1018.56 1018.60 1018.32 1018.20 1018.44 1018.24 1018.00 1017.92 1017.60 1017.12 1016.68 1016.32 1016.16 1015.92 1015.96 1016.00 1015.96 1015.88 1015.88 1016.04 1016.04 1015.40 1014.96 1014.84 1014.36 1014.04 1013.80 1013.36 1013.00 1013.04 1013.12 1012.80 1012.92 1013.08 1012.80 1012.40 1011.84 1011.60 1011.36
1020.40 1020.08 1019.84 1019.48 1019.20 1018.88 1018.80 1018.64 1018.44 1018.20 1018.28 1018.40 1018.44 1018.28 1018.16 1018.64 1019.12 1019.24 1019.36 1019.48 1019.36 1019.12 1019.12 1019.32 1019.52 1019.60 1019.52 1019.52 1019.40 1019.40 1019.44 1019.36 1019.20 1018.96 1018.88 1018.84 1018.56 1018.68 1018.64 1018.60 1018.36 1018.04 1017.92 1017.84 1017.52 1017.28 1016.92 1016.72 1016.52 1016.36 1016.16 1016.00 1015.64 1015.44 1015.40 1015.64 1015.36 1014.80 1014.52 1014.24 1014.16 1014.36 1014.00 1013.68 1013.48 1013.28 1013.32 1013.48 1013.36 1013.00 1012.32 1011.68 1011.20 1011.00
1020.32 1020.08 1019.92 1019.36 1018.76 1018.44 1018.44 1018.48 1018.28 1018.36 1018.44 1018.52 1018.68 1018.76 1018.72 1019.20 1019.40 1019.64 1019.64 1019.64 1019.40 1019.32 1019.40 1019.56 1019.64 1019.64 1019.68 1019.80 1019.72 1019.80 1019.76 1019.72 1019.52 1019.20 1018.96 1018.88 1018.84 1018.88 1018.80 1018.84 1018.64 1018.44 1018.32 1018.20 1017.96 1017.64 1017.52 1017.40 1017.24 1017.04 1016.60 1016.24 1015.92 1015.20 1014.40 1014.28 1015.20 1015.32 1014.96 1014.76 1014.72 1014.64 1014.32 1013.92 1013.76 1013.52 1013.36 1013.20 1013.20 1013.40 1012.76 1011.92 1011.20 1010.52
1020.28 1019.92 1019.60 1019.20 1019.04 1018.88 1018.88 1018.84 1018.92 1019.08 1019.08 1019.16 1019.24 1019.44 1019.72 1019.84 1019.88 1020.00 1020.12 1019.84 1019.64 1019.56 1019.68 1019.84 1019.76 1019.80 1019.88 1019.88 1019.92 1019.92 1019.88 1019.76 1019.64 1019.48 1019.40 1019.24 1019.16 1019.12 1018.96 1018.92 1018.84 1018.72 1018.60 1018.48 1018.36 1018.08 1018.04 1018.04 1017.84 1017.76 1017.60 1017.00 1016.72 1016.48 1015.84 1014.60 1014.68 1015.32 1015.72 1015.48 1014.92 1014.76 1014.44 1014.12 1013.84 1013.68 1013.60 1013.44 1013.16 1013.16 1013.04 1012.36 1011.36 1010.44
1020.28 1019.76 1019.32 1019.28 1019.16 1019.16 1019.36 1019.32 1019.36 1019.40 1019.44 1019.48 1019.64 1019.80 1019.96 1020.16 1020.16 1020.20 1020.12 1019.88 1019.96 1019.92 1020.04 1019.96 1020.08 1020.08 1020.08 1020.08 1020.12 1020.04 1019.92 1019.80 1019.84 1019.68 1019.60 1019.44 1019.36 1019.32 1019.32 1019.20 1019.16 1019.00 1018.96 1018.84 1018.68 1018.56 1018.44 1018.32 1018.00 1017.88 1017.80 1017.64 1017.72 1017.60 1016.72 1015.56 1015.36 1015.32 1015.60 1015.76 1015.28 1014.88 1014.72 1014.36 1014.08 1013.88 1013.44 1013.24 1012.92 1012.72 1012.48 1012.04 1011.44 1010.72
1020.56 1020.08 1019.60 1019.40 1019.48 1019.48 1019.64 1019.76 1019.76 1019.84 1019.84 1019.84 1019.92 1019.96 1020.04 1020.12 1020.20 1020.36 1020.20 1020.20 1020.36 1020.32 1020.32 1020.40 1020.32 1020.32 1020.32 1020.32 1020.32 1020.20 1020.08 1019.96 1019.96 1020.00 1019.92 1019.80 1019.80 1019.80 1019.76 1019.68 1019.52 1019.40 1019.40 1019.28 1019.08 1018.88 1018.60 1018.40 1018.20 1018.00 1018.16 1018.60 1018.60 1018.12 1017.44 1016.08 1015.68 1015.28 1015.40 1015.68 1015.68 1015.04 1014.48 1014.32 1014.24 1013.96 1013.36 1012.84 1012.80 1012.40 1012.16 1012.12 1011.64 1010.88
1020.40 1020.36 1020.44 1020.60 1020.52 1020.24 1020.24 1020.32 1020.32 1020.40 1020.40 1020.52 1020.52 1020.56 1020.56 1020.52 1020.68 1020.68 1020.60 1020.64 1020.76 1020.76 1020.68 1020.56 1020.52 1020.48 1020.52 1020.40 1020.36 1020.36 1020.40 1020.44 1020.44 1020.36 1020.28 1020.16 1020.12 1020.08 1020.00 1019.96 1020.08 1019.88 1019.76 1019.52 1019.20 1018.92 1018.64 1018.52 1018.36 1018.44 1018.64 1018.76 1018.72 1018.32 1017.84 1017.32 1016.44 1015.32 1014.84 1015.00 1015.00 1014.88 1014.60 1014.52 1014.28 1013.88 1013.60 1013.24 1012.72 1012.32 1012.08 1011.64 1011.12 1010.72
1020.56 1020.56 1020.68 1020.80 1020.92 1020.92 1020.96 1020.92 1020.96 1021.00 1020.96 1020.96 1020.92 1020.88 1020.88 1021.04 1021.04 1021.00 1021.00 1021.04 1021.04 1020.92 1020.76 1020.64 1020.56 1020.60 1020.56 1020.56 1020.60 1020.60 1020.68 1020.76 1020.76 1020.68 1020.60 1020.60 1020.56 1020.60 1020.56 1020.52 1020.40 1020.16 1019.92 1019.68 1019.40 1019.08 1018.96 1018.84 1018.84 1018.88 1018.76 1018.52 1018.12 1017.64 1017.16 1016.72 1016.04 1015.40 1014.88 1014.44 1014.36 1014.56 1014.60 1014.48 1014.40 1014.24 1013.96 1013.68 1013.40 1013.00 1012.40 1011.76 1011.36 1010.56
1020.68 1020.80 1020.92 1020.96 1021.12 1021.20 1021.24 1021.28 1021.32 1021.28 1021.28 1021.24 1021.24 1021.28 1021.36 1021.36 1021.28 1021.24 1021.24 1021.12 1021.04 1021.04 1021.12 1021.00 1021.12 1021.24 1021.24 1021.28 1021.28 1021.36 1021.40 1021.32 1021.28 1021.28 1021.36 1021.32 1021.20 1021.08 1020.92 1020.72 1020.52 1020.24 1020.12 1019.96 1019.76 1019.60 1019.44 1019.24 1018.96 1018.72 1018.56 1018.20 1017.72 1017.24 1016.96 1016.76 1016.52 1015.96 1015.52 1014.88 1014.52 1014.44 1014.36 1014.44 1014.56 1014.52 1014.24 1013.68 1013.52 1013.28 1012.84 1012.44 1011.88 1011.12
1021.04 1021.08 1021.12 1021.20 1021.32 1021.44 1021.48 1021.60 1021.60 1021.56 1021.56 1021.56 1021.60 1021.64 1021.64 1021.56 1021.44 1021.36 1021.28 1021.28 1021.36 1021.40 1021.52 1021.68 1021.76 1021.72 1021.76 1021.80 1021.96 1022.08 1022.08 1022.08 1022.04 1022.04 1021.96 1021.84 1021.64 1021.40 1021.20 1021.00 1020.88 1020.72 1020.68 1020.52 1020.28 1020.00 1019.60 1019.32 1019.08 1018.88 1018.60 1018.36 1018.12 1018.04 1017.80 1017.44 1016.92 1016.36 1016.00 1015.48 1014.96 1014.64 1014.48 1014.36 1014.24 1014.20 1014.12 1014.08 1014.00 1013.72 1013.20 1012.52 1012.28 1011.96
1021.32 1021.36 1021.40 1021.44 1021.48 1021.60 1021.64 1021.72 1021.68 1021.72 1021.76 1021.80 1021.84 1021.84 1021.80 1021.72 1021.68 1021.64 1021.64 1021.72 1021.80 1021.80 1021.96 1022.04 1022.08 1022.20 1022.44 1022.64 1022.76 1022.76 1022.68 1022.60 1022.64 1022.56 1022.36 1022.08 1021.92 1021.76 1021.56 1021.40 1021.28 1021.12 1020.96 1020.68 1020.40 1020.12 1019.80 1019.52 1019.28 1019.08 1018.88 1018.68 1018.32 1018.20 1017.92 1017.52 1017.24 1016.84 1016.36 1015.96 1015.56 1015.12 1014.72 1014.40 1014.16 1014.04 1014.00 1013.96 1013.96 1013.88 1013.72 1013.44 1013.16 1012.40
1021.96 1021.96 1022.00 1022.04 1021.96 1021.92 1021.92 1021.84 1021.76 1021.84 1021.96 1022.00 1021.96 1021.92 1021.84 1021.88 1021.92 1021.88 1021.92 1022.08 1022.20 1022.32 1022.44 1022.76 1023.08 1023.24 1023.32 1023.32 1023.32 1023.20 1023.08 1023.08 1022.96 1022.80 1022.60 1022.44 1022.24 1022.08 1021.96 1021.80 1021.64 1021.44 1021.24 1020.96 1020.64 1020.32 1019.96 1019.76 1019.56 1019.40 1019.12 1018.88 1018.64 1018.52 1018.24 1017.84 1017.40 1017.08 1016.80 1016.36 1015.92 1015.56 1015.08 1014.64 1014.36 1014.12 1013.84 1013.68 1013.40 1013.16 1012.92 1012.88 1012.84 1012.48
1022.28 1022.32 1022.44 1022.44 1022.40 1022.28 1022.12 1021.92 1021.96 1022.08 1022.20 1022.28 1022.36 1022.36 1022.32 1022.20 1022.20 1022.20 1022.28 1022.32 1022.56 1022.96 1023.32 1023.48 1023.60 1023.64 1023.60 1023.56 1023.52 1023.48 1023.40 1023.28 1023.20 1023.00 1022.88 1022.68 1022.52 1022.40 1022.20 1022.00 1021.80 1021.64 1021.48 1021.24 1021.00 1020.60 1020.36 1020.20 1019.92 1019.64 1019.40 1019.12 1018.92 1018.68 1018.28 1018.00 1017.60 1017.24 1016.84 1016.44 1016.00 1015.68 1015.44 1015.08 1014.56 1014.00 1013.60 1013.20 1013.08 1013.00 1012.76 1012.52 1012.32 1012.04
Wind_Speed
3 2 4 2 3 3 0 3 2 4 3 2 2 1 4 3 1 2 4 3 4 6 3 2 2 4 5 4 7 5 4 4 4 2 1 1 4 9 13 10 11 12 13 13 12 13 13 12 11 13 12 12 11 11 11 10 9 9 9 8 8 7 6 6 6 6 7 7 7 6 6 8 9 9
3 4 2 1 3 2 4 1 1 3 1 1 2 1 4 2 1 1 1 3 3 4 6 5 1 4 5 6 6 4 2 8 6 4 2 0 1 11 13 12 12 13 14 13 12 12 13 12 12 13 13 12 12 11 12 11 11 10 10 10 9 9 8 6 6 7 7 8 8 8 8 8 8 9
4 0 2 1 2 2 2 2 2 2 2 1 4 2 2 3 2 2 2 1 2 3 5 5 9 3 2 3 4 3 3 3 7 2 3 4 6 7 9 13 14 15 14 13 12 13 13 13 13 13 13 12 12 12 12 12 11 11 11 11 10 10 9 7 7 7 8 8 8 9 9 9 9 9
3 3 2 1 1 2 2 2 3 3 3 3 2 2 2 1 1 2 2 1 4 3 4 5 5 7 7 6 4 6 4 4 6 2 4 3 6 7 7 10 15 16 14 12 13 13 13 13 14 14 13 13 13 13 12 12 13 12 11 10 10 10 9 9 9 8 8 9 10 10 10 10 10 10
2 2 2 1 2 2 2 2 4 3 1 2 2 3 5 6 5 3 1 2 3 2 2 3 4 5 4 5 3 4 3 4 2 6 4 3 6 7 5 2 9 14 13 13 14 13 13 13 14 14 14 14 14 14 14 14 14 13 13 12 11 10 10 10 10 10 9 9 10 10 10 11 11 11
4 2 2 2 2 2 2 3 4 3 2 3 3 2 4 1 1 2 2 2 1 3 2 2 3 3 3 5 3 3 4 3 3 4 3 4 4 5 4 5 1 11 13 14 14 11 12 14 14 14 15 15 14 14 14 14 14 14 14 13 12 12 11 11 11 11 10 10 10 10 10 11 11 11
3 3 2 3 2 4 3 3 4 3 3 2 2 3 3 4 5 4 2 1 1 2 3 2 3 2 2 3 3 4 4 4 3 4 4 4 5 5 5 5 5 11 12 15 13 9 13 13 13 14 14 14 14 13 14 14 14 14 14 14 13 13 12 12 12 12 12 12 11 11 11 11 11 12
4 4 3 4 3 2 2 2 1 1 4 4 2 1 4 4 2 2 1 1 1 1 2 2 3 2 3 4 3 3 4 3 4 4 3 4 5 5 5 5 6 7 13 14 10 10 13 14 13 13 14 14 13 13 13 13 14 14 14 14 13 13 13 13 13 13 13 12 13 13 12 12 11 11
4 3 4 4 3 3 2 2 2 2 2 3 2 2 2 3 1 2 2 3 3 2 3 2 2 4 4 4 4 3 3 3 3 1 3 4 5 3 3 6 7 5 13 11 8 11 15 16 13 14 15 14 13 13 13 13 13 14 14 14 14 14 15 14 14 14 14 13 13 13 13 13 13 12
4 4 3 3 2 3 2 3 1 2 2 4 1 5 1 2 2 2 3 3 4 4 4 4 4 4 5 2 2 2 2 3 3 4 5 4 3 2 2 2 5 6 5 2 3 10 14 15 14 15 15 15 14 13 13 14 14 14 13 14 14 15 15 15 15 15 14 14 14 13 14 14 13 13
6 6 6 5 3 3 3 2 2 4 2 3 2 2 1 1 1 2 2 2 3 2 3 2 3 2 2 3 4 5 4 4 4 5 4 3 3 2 2 3 3 4 6 7 12 12 11 6 7 13 16 15 13 14 14 15 15 14 13 13 14 15 15 15 16 15 15 15 14 14 14 14 14 14
6 6 4 7 4 4 3 5 3 3 4 4 3 1 1 1 2 2 2 2 2 3 3 3 4 2 3 4 4 4 4 3 2 3 3 5 3 3 2 2 3 2 3 6 7 7 8 6 6 11 12 13 14 16 16 16 15 14 13 13 14 14 15 15 15 15 15 15 15 15 14 14 14 14
4 4 5 3 5 2 3 1 2 3 3 2 0 1 1 1 1 2 2 3 3 4 4 4 4 5 5 5 5 3 2 3 6 4 3 3 4 5 6 4 3 3 4 5 7 6 6 6 6 6 6 6 10 13 15 12 15 15 15 15 14 14 15 15 15 15 15 15 16 15 15 15 14 14
5 7 7 4 8 7 10 7 8 6 6 3 1 1 1 1 2 2 2 3 4 3 4 4 4 5 5 4 4 5 4 4 5 7 7 7 7 7 6 6 3 4 5 5 5 7 6 8 8 6 6 6 6 5 5 8 10 13 17 16 16 16 15 15 15 15 15 15 15 15 15 15 15 15
5 4 4 6 4 7 9 7 8 5 4 4 2 2 2 1 1 2 3 3 3 4 4 4 4 4 4 5 5 5 7 7 7 6 6 6 6 6 6 7 5 1 7 6 7 9 8 7 7 5 5 7 7 7 6 6 14 15 16 18 17 16 15 15 15 15 15 15 15 14 14 14 14 15
4 5 5 6 1 3 3 4 4 4 5 5 4 3 3 3 4 3 2 3 4 4 4 5 5 5 5 5 5 5 6 6 6 4 5 5 5 6 6 5 7 4 5 7 8 9 7 5 6 6 6 6 6 7 10 13 9 14 15 16 16 16 15 15 14 14 14 14 14 14 15 15 15 15
3 4 5 5 8 7 7 4 2 3 3 5 6 4 3 4 5 6 5 5 5 4 5 5 6 5 5 5 3 4 4 4 5 5 5 5 6 6 7 7 8 8 6 7 6 7 7 5 4 5 6 6 5 7 6 7 9 10 14 14 15 15 15 15 14 14 14 14 14 14 15 15 15 15
8 13 10 8 6 6 7 6 9 2 0 1 1 1 2 3 4 4 6 8 8 6 5 4 5 7 5 5 2 3 3 4 4 5 6 5 6 7 8 8 8 8 7 7 6 6 5 3 5 5 5 6 5 4 9 15 4 7 10 12 13 14 15 14 13 13 14 14 14 15 15 15 15 15
8 4 4 4 4 5 5 6 7 9 6 2 1 1 3 3 2 3 4 4 4 4 4 4 5 5 4 2 2 3 3 3 4 4 5 6 6 8 8 7 6 6 5 5 3 5 4 3 5 5 5 6 5 5 9 13 6 1 8 11 12 13 13 11 12 13 13 13 14 15 15 15 15 15
7 5 4 3 2 5 3 5 8 5 5 4 2 2 3 3 3 1 4 1 2 2 2 2 3 4 5 4 5 5 5 5 5 4 4 5 6 6 5 6 6 6 4 5 5 4 4 4 6 6 6 6 6 7 6 7 7 5 3 7 10 10 11 12 13 12 12 13 14 14 15 15 15 14
5 5 4 5 4 2 2 5 8 9 8 2 3 3 4 4 4 3 2 7 8 7 6 7 8 9 10 11 11 11 11 9 4 3 4 5 4 5 6 6 5 6 6 5 5 5 5 5 6 7 6 5 7 6 5 4 5 8 8 5 7 11 13 13 13 13 12 13 13 14 14 14 12 10
5 7 11 8 5 4 4 6 8 10 7 3 4 4 4 4 4 2 6 5 4 2 3 7 9 10 11 11 13 13 14 15 4 3 4 5 5 4 4 5 5 6 6 2 4 5 5 6 5 6 5 5 4 5 5 4 5 7 6 6 8 10 11 12 12 13 13 13 13 13 12 10 6 4
4 5 9 11 7 5 3 5 8 10 8 4 4 3 4 4 3 6 6 5 5 5 6 5 5 5 6 6 6 8 13 15 7 4 3 3 2 4 4 5 6 6 2 3 4 5 5 6 4 5 6 6 4 3 5 6 4 5 6 6 5 7 9 11 12 13 13 14 14 13 12 9 8 5
5 5 4 5 5 5 5 5 6 6 7 4 3 3 3 4 4 6 6 5 5 6 6 6 5 6 6 6 5 5 4 1 7 5 4 2 2 2 4 4 4 5 4 3 2 3 4 4 5 4 4 6 5 5 4 5 6 7 6 5 4 6 6 7 7 12 13 13 13 13 12 9 10 5
3 3 4 4 2 3 5 5 6 6 5 5 4 3 3 2 3 4 4 7 10 6 6 5 5 4 4 4 4 4 2 5 4 1 0 1 2 2 4 5 5 5 5 5 3 3 4 5 7 5 4 3 6 7 5 6 6 7 4 6 7 5 5 5 5 5 6 10 11 11 9 10 13 9
2 1 3 3 1 4 5 5 4 5 4 4 3 1 1 1 2 3 4 5 5 5 5 4 4 4 4 5 4 5 6 6 6 6 5 3 3 3 4 5 5 6 6 4 4 6 6 5 5 7 6 6 6 5 7 6 5 5 7 7 6 6 5 6 5 4 3 3 2 3 6 9 11 14
1 3 1 4 4 2 2 1 3 4 4 4 2 1 4 4 3 4 4 5 5 5 5 3 4 5 5 4 6 7 7 7 6 6 6 5 5 6 6 5 6 7 7 8 7 6 4 3 3 4 5 4 6 6 5 6 7 5 6 6 6 7 7 6 5 5 6 2 2 3 5 7 11 13
2 2 4 3 3 5 6 7 5 5 5 5 8 6 7 7 5 4 5 5 6 5 2 3 4 4 3 3 4 4 4 4 4 5 4 5 6 6 5 5 6 6 8 9 8 4 1 2 2 1 1 4 5 6 8 6 5 6 7 6 6 7 6 6 7 5 1 1 4 3 4 5 2 3
4 3 4 6 8 8 10 11 9 7 8 11 9 10 10 7 4 5 5 5 4 3 3 3 3 3 3 4 3 3 2 2 3 3 3 3 5 5 5 6 6 6 8 8 7 6 1 0 2 2 2 1 4 5 6 8 8 8 8 10 8 5 7 7 6 4 4 4 4 3 4 5 6 4
2 3 4 6 8 8 6 5 4 4 4 1 5 8 7 4 5 5 5 4 2 1 3 4 3 4 5 5 5 4 2 3 4 3 4 5 5 6 7 7 6 6 7 8 8 5 7 7 6 5 3 3 3 5 5 8 9 9 8 8 9 9 6 5 5 3 4 5 4 4 4 5 6 6
3 5 4 4 6 7 11 13 13 10 8 8 7 6 5 5 5 5 5 4 3 5 4 4 5 4 4 5 5 6 6 5 4 4 5 5 5 6 5 6 6 6 6 6 6 7 9 8 7 7 8 7 6 5 6 6 9 9 9 8 8 9 8 7 5 5 3 3 5 6 6 6 6 6
5 4 5 6 6 5 6 6 5 5 5 5 5 5 4 2 2 4 3 7 6 4 2 2 2 3 3 4 4 4 4 3 4 5 6 6 7 7 6 5 5 5 5 4 5 5 6 4 5 6 6 6 7 7 6 6 9 9 9 8 8 8 7 6 7 5 4 6 7 7 8 8 10 9
5 5 5 5 5 5 4 5 6 5 6 6 5 2 2 3 1 6 7 5 5 2 3 4 5 6 6 5 5 6 6 6 7 7 7 6 6 6 5 6 6 6 7 7 6 6 4 5 5 6 7 6 7 9 9 10 9 8 9 9 7 8 6 5 6 8 9 9 9 10 12 11 9 9
3 4 4 5 5 5 4 3 4 1 3 2 0 0 2 7 7 6 6 5 4 5 4 5 5 5 5 5 5 6 6 7 7 7 7 5 5 6 6 6 5 6 6 6 6 7 7 7 8 8 8 8 8 9 10 9 10 9 8 7 6 7 7 8 8 10 10 9 11 13 14 13 10 8
3 5 5 6 4 1 1 3 1 3 1 1 4 5 5 7 7 6 5 6 4 4 5 5 4 4 5 6 6 6 6 6 6 6 5 6 6 6 7 7 6 6 7 7 7 7 8 9 10 10 9 7 6 4 9 10 4 7 8 8 8 8 9 9 10 11 12 11 9 10 12 12 12 9
4 5 5 4 3 4 4 5 6 6 6 6 6 5 7 6 6 6 5 4 5 4 5 4 3 5 5 5 5 5 5 5 5 5 6 5 6 6 6 6 6 7 7 7 7 7 9 9 9 10 10 10 9 9 6 8 13 10 10 10 9 10 10 11 12 11 11 11 9 9 10 12 12 10
5 6 4 3 3 4 5 6 5 5 6 5 6 6 5 5 6 6 5 4 5 5 6 5 6 6 6 5 5 5 5 5 5 5 5 5 6 6 6 6 7 7 7 6 7 8 8 8 8 8 9 9 9 10 10 7 11 10 10 11 12 12 12 12 11 10 9 9 10 9 9 9 10 11
4 5 4 4 5 4 7 6 6 6 6 5 5 4 5 5 6 6 5 4 6 5 6 5 5 4 5 5 5 5 5 5 5 6 6 6 6 6 7 7 7 7 7 8 8 8 8 7 7 7 7 8 10 11 13 13 12 8 3 7 10 12 11 11 10 10 10 8 9 9 10 12 13 12
3 4 9 8 8 8 7 8 7 7 7 8 8 7 6 6 7 6 6 6 6 5 4 4 4 4 4 4 5 5 6 6 6 6 6 6 6 6 7 7 8 8 8 9 8 7 6 6 6 7 8 9 9 9 10 12 14 13 13 13 11 9 8 7 9 10 11 12 11 11 10 10 13 16
6 6 7 7 7 7 7 7 7 7 6 7 5 5 6 6 5 5 5 6 5 5 5 4 4 3 3 5 5 6 6 7 7 7 7 8 8 9 8 8 8 8 8 8 8 7 7 7 8 9 10 9 10 10 10 11 11 11 10 9 8 7 8 10 12 11 11 10 12 13 14 13 14 12
5 6 5 5 6 6 6 6 6 5 6 5 6 7 7 6 5 4 4 5 4 4 5 6 7 8 8 9 9 8 7 7 8 8 9 9 9 9 10 10 8 7 8 9 9 8 8 8 11 16 13 10 10 10 9 9 9 8 10 10 13 17 15 10 8 10 12 12 12 13 14 14 13 13
5 5 4 5 5 5 5 5 4 4 4 4 4 4 5 5 4 5 4 4 6 7 8 8 8 8 8 8 8 8 8 8 7 8 8 8 8 8 8 7 8 8 8 9 9 9 9 9 10 9 8 9 9 9 10 10 11 11 10 10 10 12 16 19 19 16 12 10 10 11 12 13 12 13
5 4 4 5 4 4 4 3 3 3 4 4 3 4 4 3 4 5 5 5 6 6 5 5 6 7 8 8 8 7 7 7 8 8 8 7 7 8 7 7 8 8 8 9 8 9 9 9 9 9 9 9 8 8 11 11 11 11 11 11 11 11 11 13 14 15 16 19 18 15 12 12 12 13
7 7 6 7 5 4 3 3 3 2 2 4 4 4 3 4 4 4 5 5 5 5 6 8 9 8 8 7 7 6 6 7 7 7 8 7 8 8 8 8 8 8 8 9 9 9 9 9 9 10 10 9 9 9 10 11 11 10 11 11 11 11 12 11 11 14 14 13 15 16 18 16 14 17
5 5 5 5 5 5 5 4 4 5 5 5 6 7 7 6 5 5 5 6 7 8 8 8 7 6 6 6 6 6 6 8 7 7 7 7 7 7 7 7 7 8 8 8 10 10 9 9 9 8 8 9 9 9 10 11 12 12 11 12 12 11 11 12 14 14 12 10 11 18 19 21 21 23
Wind_Direction
255 225 314 251 221 265 165 337 338 68 47 42 315 282 105 115 36 330 344 327 344 324 312 208 271 216 252 244 254 266 212 229 236 246 222 42 178 204 216 211 212 217 218 215 225 229 230 226 224 235 239 239 240 242 240 233 225 220 224 228 234 242 242 237 230 226 224 222 227 235 239 244 243 245
321 284 183 249 336 346 341 267 351 89 184 166 285 272 114 112 94 56 299 303 301 302 325 326 236 253 243 226 246 281 133 223 254 259 309 310 10 188 215 211 213 217 214 210 218 227 231 234 232 229 233 238 238 239 241 240 236 230 224 223 230 233 239 239 233 235 233 228 226 229 237 239 241 244
246 310 296 269 215 7 312 327 264 169 91 263 208 282 148 166 151 154 155 296 288 340 303 316 342 319 215 313 343 353 9 217 227 298 22 321 287 241 232 214 211 212 211 204 215 224 229 232 233 230 229 232 236 236 237 239 240 240 232 227 227 229 230 231 234 237 237 236 231 229 230 235 239 241
269 211 264 258 35 244 254 298 331 280 178 204 353 356 101 182 177 180 157 219 273 285 303 330 321 323 351 329 19 360 327 4 309 7 327 288 283 268 270 272 204 207 203 203 215 224 227 231 232 231 227 226 228 231 230 232 237 238 238 233 228 223 222 222 227 235 238 238 237 234 231 232 236 240
262 258 228 276 292 333 315 310 288 301 254 138 70 37 30 29 22 33 8 221 272 299 326 310 305 321 326 320 357 326 356 299 339 332 291 298 286 281 269 295 198 200 194 205 219 221 226 229 232 232 229 224 224 225 228 231 232 234 236 235 230 223 219 218 218 225 234 238 238 238 236 234 233 234
262 247 221 255 269 228 231 259 280 270 315 17 85 97 85 106 220 228 221 284 297 281 293 276 285 314 346 307 330 318 317 295 296 282 318 294 296 310 341 325 264 188 195 211 222 220 227 231 231 232 232 230 225 224 226 228 230 232 233 233 231 226 222 220 219 220 223 231 237 239 238 237 235 234
246 252 251 249 241 263 237 208 242 294 329 64 135 163 176 178 214 210 166 185 263 305 311 314 317 316 303 322 318 330 295 306 309 347 311 325 316 317 321 317 317 181 205 217 225 220 233 236 233 232 235 235 232 228 227 226 228 229 230 230 230 229 227 223 222 221 222 223 227 234 237 237 237 237
225 238 229 237 247 247 292 354 29 174 198 222 245 179 194 205 54 73 347 321 332 292 293 307 299 314 314 285 276 263 283 301 320 279 320 321 311 306 305 321 332 186 211 226 225 222 235 238 234 235 236 236 235 234 231 229 226 226 227 227 227 228 230 228 224 224 224 223 224 226 231 235 237 237
240 230 240 228 216 218 245 220 283 275 312 317 28 313 41 310 153 140 220 224 217 236 266 275 266 262 253 249 257 241 278 286 276 332 294 288 286 308 353 334 330 311 217 237 227 232 236 238 230 234 237 235 235 234 235 234 230 226 224 224 224 225 228 229 229 227 226 225 224 225 226 229 233 235
235 238 231 256 242 245 203 229 160 324 44 5 259 258 257 142 225 233 211 222 218 226 238 240 265 258 260 280 297 274 250 268 286 287 275 262 277 302 325 307 312 320 339 356 239 235 243 244 228 233 237 237 234 233 234 235 235 228 222 221 222 224 225 227 229 229 228 227 227 225 226 227 228 230
226 220 220 220 226 230 216 235 206 208 199 210 289 337 46 311 6 259 257 269 266 268 268 264 259 287 349 354 295 280 256 255 236 255 277 279 250 243 247 275 280 311 324 317 293 283 279 257 211 231 238 242 241 238 235 234 235 233 225 220 222 224 226 227 228 228 229 229 228 227 227 227 229 229
241 229 237 248 228 215 206 200 210 189 206 196 218 152 114 193 234 286 294 302 316 299 312 298 312 323 285 276 257 267 293 296 306 261 267 291 294 287 266 249 294 296 300 293 303 320 333 346 220 232 239 244 246 242 240 237 235 229 227 225 222 223 225 228 228 228 229 230 230 229 228 227 228 230
307 297 235 234 263 315 258 256 317 96 89 50 272 158 347 20 346 337 338 315 327 312 286 293 288 279 277 272 270 286 305 341 299 301 339 333 331 332 329 311 294 292 305 301 309 315 335 307 306 322 314 273 240 246 239 243 236 225 223 224 225 224 222 224 226 227 229 229 231 231 230 228 227 229
234 249 278 257 198 185 239 212 211 175 156 161 182 92 64 313 327 302 307 300 283 292 300 294 302 299 298 313 345 354 331 328 4 356 356 345 338 333 315 304 299 309 298 318 326 321 315 311 309 301 291 295 284 271 223 221 223 216 215 219 221 223 224 221 222 224 226 228 231 233 233 232 231 230
264 270 247 248 229 191 204 210 198 184 168 168 172 200 195 226 274 303 302 311 328 327 319 314 307 309 331 343 356 338 347 358 352 341 336 321 320 323 322 314 315 322 11 343 323 304 302 300 293 293 295 300 299 302 296 266 225 221 209 213 217 219 223 223 222 222 224 226 229 231 234 235 235 234
250 260 274 275 176 177 166 208 172 195 195 190 194 218 226 212 237 252 265 293 308 303 315 320 313 325 313 333 342 345 354 350 335 339 333 319 323 317 313 309 302 313 349 319 303 293 295 298 299 297 296 300 303 308 305 305 245 222 215 212 214 215 218 222 222 222 222 223 225 228 230 232 233 234
326 335 341 343 49 340 0 314 289 174 193 201 217 225 237 248 245 248 259 240 251 290 287 293 301 298 323 316 333 7 347 343 327 328 320 317 308 302 297 293 297 300 309 292 281 286 298 297 292 299 295 299 295 302 332 342 288 243 222 217 216 215 216 219 220 220 220 220 222 224 227 229 231 232
18 30 17 28 18 23 26 11 349 333 175 354 171 203 244 258 255 208 222 256 242 221 225 251 270 282 287 295 329 345 350 337 322 315 304 312 302 295 284 285 285 286 284 270 282 288 293 299 311 298 296 302 310 325 337 330 335 242 233 231 224 221 221 221 219 220 219 220 221 223 226 228 230 232
71 66 36 15 51 47 21 17 356 357 356 19 1 274 256 250 224 183 222 213 193 192 225 227 249 268 286 302 330 309 307 298 292 282 291 297 291 285 281 280 271 275 267 276 292 295 316 321 321 315 321 335 327 331 329 305 328 232 225 229 231 232 233 229 225 223 223 223 224 225 225 227 229 232
108 102 94 91 102 87 56 354 350 7 303 304 339 340 336 315 302 244 171 163 213 266 302 317 320 320 317 307 276 272 278 289 280 300 302 291 280 286 308 316 329 318 339 342 344 332 327 343 328 327 324 325 316 317 295 303 324 339 288 232 232 243 247 242 237 233 231 230 231 230 228 228 229 231
72 87 147 154 122 106 104 7 360 359 346 5 359 350 317 314 305 309 157 185 199 210 211 230 245 251 259 266 268 273 271 259 276 324 306 285 306 332 325 316 324 324 335 342 13 350 318 341 331 318 317 318 312 298 300 324 349 347 326 279 236 228 232 236 241 242 240 240 238 237 234 231 230 233
73 55 67 81 102 84 44 7 18 8 359 10 7 328 329 315 308 348 20 351 346 341 322 305 292 284 279 273 269 267 264 263 208 202 242 302 338 323 312 309 313 312 308 327 16 344 313 323 320 312 312 307 294 311 311 336 332 323 316 281 259 254 244 243 246 246 248 248 248 247 244 240 218 210
90 75 55 61 62 75 52 30 27 15 9 14 349 344 308 295 328 34 349 348 335 336 325 310 306 298 276 262 252 251 243 243 188 189 238 299 333 313 312 310 311 311 304 324 2 315 314 320 320 327 321 314 297 287 335 317 324 341 322 308 289 251 248 253 251 253 251 247 248 249 245 223 184 219
126 120 126 91 95 98 89 57 37 24 15 2 342 334 329 357 12 350 341 326 322 309 306 299 295 284 276 270 272 273 279 215 118 225 222 210 161 252 287 295 298 294 299 303 292 294 299 311 313 328 300 308 320 333 322 337 333 310 302 304 311 308 270 256 267 258 254 255 253 253 249 215 192 215
77 113 110 96 67 93 74 50 38 16 9 355 321 330 19 29 306 315 313 311 313 299 284 277 275 298 326 322 300 294 25 109 116 156 33 154 178 222 272 296 303 298 298 300 328 325 310 323 309 318 312 315 307 314 332 321 314 300 318 335 318 302 304 287 267 276 250 248 252 251 249 217 204 213
92 348 81 97 74 36 54 32 6 344 347 337 295 34 139 246 317 315 295 285 292 295 298 309 347 337 313 300 329 1 10 9 25 5 1 348 306 253 240 255 283 305 314 328 347 315 308 304 317 317 325 330 322 323 316 312 301 328 335 313 305 302 299 296 296 286 295 273 241 196 238 223 209 216
190 265 127 107 90 351 10 290 298 293 303 291 248 280 301 290 294 277 278 280 289 286 284 348 328 304 298 347 10 24 11 358 9 347 333 332 349 342 332 333 334 333 332 323 300 280 277 293 323 336 339 332 311 313 302 317 318 322 309 318 322 318 301 299 297 295 284 301 342 297 263 231 219 221
143 35 25 13 344 317 307 305 293 285 269 260 266 265 271 279 275 271 283 269 250 252 319 323 295 301 3 8 23 22 359 354 339 330 335 351 347 327 317 336 343 333 324 308 299 293 309 311 313 51 304 312 318 319 317 303 297 314 314 314 313 301 310 317 302 294 303 1 324 327 320 310 251 183
35 353 334 326 323 316 303 293 289 276 261 251 253 260 265 272 268 264 257 272 297 359 319 292 328 329 352 22 25 1 318 335 315 313 320 338 327 321 343 346 334 329 316 313 314 320 304 177 257 265 258 275 303 311 314 311 316 317 320 317 307 309 308 293 293 317 337 324 308 301 301 295 291 229
357 345 307 317 314 308 293 283 283 271 268 265 243 252 251 240 249 249 245 237 217 316 334 328 349 2 13 10 338 306 318 311 313 337 347 344 346 3 337 329 323 314 312 315 315 342 5 359 342 327 312 300 302 305 314 319 314 311 311 306 305 303 280 297 311 309 320 312 305 299 286 279 271 276
356 317 303 279 274 263 277 277 271 273 277 281 273 240 229 221 232 234 243 262 74 69 19 13 16 350 1 341 353 357 342 344 7 15 353 355 348 335 322 313 306 312 309 304 323 359 359 350 343 347 338 325 317 309 303 302 297 304 303 302 307 304 313 308 299 302 285 292 308 305 308 306 300 288
314 310 287 267 247 253 255 260 251 232 228 238 244 231 218 241 229 233 202 90 82 72 34 22 332 320 345 353 341 304 302 338 10 18 7 356 332 316 315 311 310 308 306 330 343 346 328 321 334 323 311 306 310 316 318 305 296 292 291 294 293 290 295 307 312 315 347 342 333 325 319 316 312 311
316 322 303 271 251 239 253 249 243 207 186 219 233 257 291 242 345 42 33 56 59 59 28 22 27 15 1 351 347 354 356 15 2 10 351 327 307 312 315 317 319 322 336 337 335 323 335 337 330 333 339 339 333 320 311 302 291 282 284 288 283 287 298 325 353 357 353 349 334 321 310 303 300 296
305 301 299 287 269 235 223 254 263 327 38 82 59 13 225 60 64 46 44 29 14 359 30 40 29 11 357 352 354 2 3 359 356 336 322 316 330 326 324 322 329 335 332 329 338 343 346 351 352 344 337 318 299 281 277 272 274 287 296 291 323 346 357 352 345 342 339 330 322 316 310 307 299 286
291 294 284 273 274 252 245 251 272 62 227 109 34 8 28 83 61 65 38 20 6 8 30 31 21 3 4 1 360 1 360 346 335 325 337 340 332 335 341 337 333 339 348 345 343 351 355 349 344 327 313 301 295 270 246 257 303 349 347 352 351 340 337 338 332 326 325 320 320 302 298 296 295 294
287 279 287 326 359 355 353 14 40 29 20 39 41 35 29 37 64 51 46 335 357 7 28 10 3 19 7 354 1 356 339 331 321 337 335 333 341 342 336 330 344 349 349 340 346 354 353 339 328 316 316 319 320 325 320 26 28 5 348 333 333 330 323 325 322 316 313 306 297 289 290 291 294 298
301 306 310 323 10 25 20 26 34 22 25 28 41 28 24 28 31 36 19 6 14 11 25 5 17 4 1 1 354 333 325 328 335 341 334 341 338 333 337 343 345 339 337 350 350 344 334 321 316 318 326 331 338 330 318 327 341 347 336 332 325 320 313 307 305 301 292 287 285 285 284 299 309 314
300 296 310 23 17 28 47 33 26 26 21 21 26 21 25 20 33 27 5 12 27 9 20 7 2 357 354 347 324 328 335 344 346 343 343 343 344 350 349 337 338 346 349 340 333 324 317 314 321 329 350 348 332 327 319 322 316 318 343 313 302 300 300 298 299 301 304 305 309 313 316 309 307 309
280 19 38 31 19 16 35 28 24 26 28 24 18 20 12 22 27 7 3 21 28 18 355 343 338 353 339 330 345 347 346 348 346 348 344 341 341 337 338 353 349 340 331 321 319 310 317 318 333 356 353 333 324 313 313 310 307 310 309 294 276 284 297 310 314 319 319 320 321 322 312 305 297 297
50 52 47 38 29 29 30 34 29 21 20 19 12 1 8 28 15 5 4 5 359 343 322 325 351 344 332 358 350 352 354 356 349 343 352 355 359 356 354 349 334 326 316 313 315 326 327 339 354 348 335 326 309 301 296 289 284 282 287 299 318 337 330 332 322 324 325 329 322 316 315 318 314 315
52 51 50 41 37 25 25 29 22 16 11 13 6 19 18 3 353 10 359 320 319 3 357 360 20 12 12 10 11 7 360 355 359 0 3 355 347 343 335 332 321 322 326 324 331 330 335 342 336 335 326 313 309 307 298 295 302 313 319 322 331 329 320 322 328 328 318 320 320 314 310 312 312 314
19 37 37 48 31 29 20 25 21 7 4 15 7 8 360 337 321 337 330 354 17 17 20 19 15 11 13 15 16 10 2 358 360 359 349 341 332 331 331 334 331 340 333 326 324 322 327 331 328 326 324 328 325 320 312 309 307 313 317 317 317 325 330 326 317 307 298 303 314 318 318 317 321 312
34 25 22 36 29 25 11 358 3 5 3 355 358 5 323 331 353 359 5 22 21 19 22 15 14 19 20 21 13 5 356 354 354 342 336 331 337 331 330 333 334 329 325 319 320 320 322 325 329 332 329 322 322 327 318 322 321 316 316 319 321 322 315 310 314 328 336 330 321 309 303 302 311 305
27 17 14 13 4 9 345 325 351 38 18 349 347 320 334 357 349 357 25 34 26 25 26 30 28 24 18 12 4 351 350 347 339 333 334 336 330 337 335 332 332 331 329 324 323 323 325 331 335 332 325 327 331 325 318 316 312 318 319 317 315 318 320 330 325 316 306 289 275 275 283 285 283 286
22 19 2 353 349 338 323 331 16 16 12 7 1 360 354 353 360 9 11 17 30 37 39 32 23 12 5 357 352 345 346 340 335 332 330 326 331 325 323 321 321 324 324 325 324 324 331 329 326 324 320 324 323 316 313 313 315 315 313 314 319 326 327 324 318 315 315 316 335 335 330 328 326 324